[[{"header":{"parameterUnit":"m.s-1","parameterCategory":1,"la1":30.2991,"la2":30.254,"lo1":-89.0895,"lo2":-89.0444,"dy":0.0017,"dx":0.0017,"nx":28,"ny":28,"refTime":"2024-07-07T03:00:00:Z","depth":0,"parameterNumber":2,"parameterNumberName":"U-component_of_WINDS"},"data":[0,0,0,0,0,0,0,0,0,0,0,0,0,0,0,0,0,0,0,0,0,0,0,0,0,0,0,0,0,0,0,0,0,0,0,0,0,0,0,0,0,0,0,0,0,0,0,0,0,0,0,0,0,0,0,0,0,0,-0.0543,-0.0542,0,-0.0493,-0.0492,-0.0491,-0.052,-0.0522,-0.0523,-0.0524,-0.0467,-0.0465,-0.0462,0,0,0,0,0,0,0,0,0,0,0,0,0,-0.0657,-0.0655,-0.0543,-0.0542,-0.0541,-0.0493,-0.0492,-0.0491,-0.052,-0.0522,-0.0523,-0.0525,-0.0468,-0.0465,-0.0461,0,0,0,0,0,0,0,0,0,0,0,0,0,-0.0607,-0.0654,-0.0543,-0.055,-0.055,-0.0493,-0.0492,-0.0491,-0.052,-0.0522,-0.0524,-0.0526,-0.0469,-0.0465,-0.0461,-0.0392,0,0,-0.0448,-0.0446,0,0,0,0,0,0,0,0,-0.061,-0.0603,-0.055,-0.0549,-0.0549,-0.0515,-0.0512,-0.0458,-0.0519,-0.0531,-0.0524,-0.0527,-0.0481,-0.0476,-0.0462,-0.0389,-0.0387,-0.0448,-0.0445,-0.0443,-0.0442,0,0,0,0,0,0,0,-0.0614,-0.0605,-0.0523,-0.0549,-0.0549,-0.0554,-0.0549,-0.0501,-0.0494,-0.053,-0.0532,-0.0526,-0.0481,-0.0466,-0.0461,-0.0386,-0.0448,-0.0444,-0.0441,-0.044,-0.0254,-0.0251,0,0,0,0,0,0,-0.0617,-0.0608,-0.0524,-0.0521,-0.0586,-0.055,-0.0545,-0.0524,-0.0495,-0.0493,-0.0524,-0.0528,-0.0472,-0.0466,-0.0459,-0.0376,-0.0443,-0.0439,-0.0437,-0.0256,-0.0253,-0.025,0,0,0,0,0,0,-0.062,-0.061,-0.0526,-0.0565,-0.0555,-0.0546,-0.0522,-0.0522,-0.0506,-0.0491,-0.0489,-0.051,-0.0473,-0.0465,-0.0409,-0.0374,-0.0437,-0.0433,-0.0259,-0.0255,-0.0252,-0.0209,0,0,0,0,0,0,-0.0623,-0.061,-0.0585,-0.0564,-0.0553,-0.0479,-0.052,-0.0519,-0.0499,-0.0503,-0.0477,-0.0475,-0.0474,-0.0415,-0.0404,-0.0369,-0.043,-0.0262,-0.0257,-0.0253,-0.0213,-0.0204,-0.0197,0,0,0,0,0,-0.0627,-0.0574,-0.0584,-0.0574,-0.0522,-0.0477,-0.047,-0.0472,-0.0497,-0.047,-0.046,-0.0475,-0.038,-0.0409,-0.0397,-0.036,-0.0264,-0.0258,-0.0253,-0.0217,-0.0206,-0.0197,0,0,0,0,0,0,-0.0589,-0.0572,-0.0582,-0.0522,-0.0501,-0.0482,-0.0449,-0.0461,-0.0431,-0.0435,-0.0438,-0.0432,-0.0373,-0.0361,-0.0394,-0.0292,-0.0325,-0.0317,-0.0302,-0.0291,-0.0283,-0.0287,-0.0427,0,0,0,0,0,-0.0574,-0.0541,-0.0527,-0.0474,-0.0463,-0.0458,-0.0438,-0.0442,-0.042,-0.041,-0.0397,-0.0373,-0.0337,-0.0313,-0.028,-0.0212,-0.0206,-0.0181,-0.0172,-0.0165,-0.0158,-0.012,-0.0109,-0.0233,-0.0233,-0.0233,0,0,-0.0542,-0.0529,-0.0507,-0.0466,-0.0451,-0.0414,-0.045,-0.041,-0.0383,-0.0404,-0.0351,-0.0339,-0.0312,-0.025,-0.0222,-0.0238,-0.0123,-0.0159,-0.0153,-0.015,-0.0114,-0.0102,-0.0091,-0.0229,-0.023,-0.023,0,0,-0.0465,-0.0452,-0.0407,-0.0391,-0.0367,-0.0364,-0.0353,-0.0332,-0.0326,-0.0273,-0.0288,-0.0254,-0.0193,-0.0173,-0.0155,-0.0071,-0.0083,-0.0059,-0.0015,0.0022,0.0031,0.004,0.0071,0.0082,-0.0053,-0.0052,-0.0052,0,-0.0428,-0.0376,-0.0382,-0.0341,-0.0322,-0.0341,-0.0295,-0.0278,-0.0243,-0.0229,-0.0248,-0.0172,-0.0156,-0.0088,-0.0068,-0.0053,-0.0039,-0.0062,0.003,0.0039,0.0047,0.0076,0.0088,-0.005,-0.005,-0.005,-0.0051,0,-0.0331,-0.0294,-0.026,-0.0229,-0.0206,-0.0162,-0.016,-0.0135,-0.0141,-0.0135,-0.008,-0.0061,-0.0024,-0.0008,-0.0012,0.0059,0.0048,0.003,-0.0004,0.0061,0.0089,0.0101,-0.0046,-0.0047,-0.0048,-0.0048,0,0,-0.0229,-0.0201,-0.0189,-0.0174,-0.0149,-0.012,-0.0076,-0.0042,-0.0021,0.0004,0.0042,0.0093,0.0076,0.0097,0.0095,0.0127,0.0194,0.0105,0.0105,0.0121,0.0275,0.0289,0.0302,0.0185,0.0188,0.0189,0.0273,0,-0.015,-0.0076,-0.008,-0.001,0.0025,0.0007,0.0046,0.0066,0.0073,0.0105,0.0113,0.015,0.0125,0.0137,0.0168,0.0179,0.0225,0.0173,0.0222,0.0224,0.0216,0.0317,0.0332,0.0409,0.0284,0.0286,0.0287,0,-0.0049,-0.0022,0.0051,0.0071,0.0085,0.012,0.0151,0.0181,0.0205,0.0208,0.0231,0.0223,0.0269,0.0234,0.0298,0.0263,0.0283,0.0292,0.0295,0.03,0.026,0.0325,0.0434,0.0446,0.0304,0.0302,0.0301,0,0.0019,0.0073,0.0124,0.0137,0.0161,0.0186,0.0198,0.0219,0.024,0.0269,0.0283,0.0317,0.0336,0.0364,0.0366,0.034,0.0432,0.0396,0.0437,0.0437,0.0457,0.0456,0.0572,0.0469,0.0469,0.0469,0.0469,0,0.0108,0.0153,0.0155,0.0186,0.0237,0.0233,0.0285,0.0294,0.0313,0.0348,0.0335,0.0368,0.0369,0.0404,0.0406,0.046,0.0468,0.0473,0.0474,0.0475,0.0474,0.0488,0.0483,0.0472,0.0471,0.0471,0.047,0,0.0192,0.0194,0.0249,0.0267,0.0273,0.031,0.0327,0.0358,0.0363,0.0407,0.0417,0.0427,0.0467,0.0472,0.0519,0.052,0.0585,0.0579,0.0576,0.0576,0.0616,0.0613,0.0745,0.0763,0.0649,0.065,0.0651,0,0.0248,0.0283,0.0305,0.0326,0.0339,0.0373,0.0394,0.0393,0.0416,0.0445,0.0473,0.0511,0.0541,0.0606,0.0618,0.0654,0.065,0.0694,0.0655,0.0655,0.0651,0.0649,0.0653,0.0702,0.0703,0.0704,0.0705,0,0.0348,0.0348,0.0378,0.0409,0.0434,0.0459,0.0483,0.0501,0.0502,0.0529,0.0569,0.0592,0.0639,0.0678,0.0713,0.0728,0.0717,0.0717,0.0728,0.073,0.0727,0.0729,0.0597,0.0714,0.0713,0.0712,0.0712,0.0711,0.0421,0.0451,0.0471,0.0505,0.0522,0.0544,0.0574,0.0583,0.0616,0.0653,0.065,0.0694,0.0718,0.0764,0.0781,0.0817,0.0802,0.0819,0.0823,0.0827,0.0831,0.0721,0.0823,0.0823,0.0823,0.0822,0.0822,0,0.052,0.0532,0.0564,0.0596,0.0624,0.061,0.0635,0.066,0.0698,0.072,0.075,0.0796,0.0833,0.0848,0.0885,0.0911,0.0907,0.0921,0.0919,0.0923,0.0842,0.0828,0.0923,0.0923,0.0923,0.0923,0.0923,0.0923,0.0575,0.0626,0.0628,0.0687,0.0699,0.0741,0.0756,0.0778,0.0795,0.0847,0.0877,0.0886,0.0906,0.0945,0.0979,0.0982,0.0997,0.1013,0.1015,0.0939,0.0929,0.0919,0.0906,0.1016,0.1016,0.1093,0.1094,0.1094]},{"header":{"parameterUnit":"m.s-1","parameterCategory":1,"la1":30.2991,"la2":30.254,"lo1":-89.0895,"lo2":-89.0444,"dy":0.0017,"dx":0.0017,"nx":28,"ny":28,"refTime":"2024-07-07T03:00:00:Z","depth":0,"parameterNumber":3,"parameterNumberName":"V-component_of_WINDS"},"data":[0,0,0,0,0,0,0,0,0,0,0,0,0,0,0,0,0,0,0,0,0,0,0,0,0,0,0,0,0,0,0,0,0,0,0,0,0,0,0,0,0,0,0,0,0,0,0,0,0,0,0,0,0,0,0,0,0,0,0.7908,0.7907,0,0.7862,0.7862,0.7861,0.7796,0.7794,0.7793,0.7792,0.7747,0.7747,0.7747,0,0,0,0,0,0,0,0,0,0,0,0,0,0.794,0.794,0.7908,0.7907,0.7907,0.7862,0.7862,0.7861,0.7796,0.7794,0.7793,0.7792,0.7747,0.7747,0.7747,0,0,0,0,0,0,0,0,0,0,0,0,0,0.7914,0.794,0.7908,0.7869,0.7865,0.7862,0.7862,0.7861,0.7796,0.7794,0.7793,0.7791,0.7747,0.7747,0.7747,0.7779,0,0,0.7746,0.7746,0,0,0,0,0,0,0,0,0.7915,0.7912,0.7875,0.7871,0.7867,0.7833,0.7856,0.7834,0.7796,0.7822,0.7792,0.779,0.7777,0.7774,0.7769,0.7777,0.7775,0.7746,0.7746,0.7746,0.7746,0,0,0,0,0,0,0,0.7917,0.7914,0.789,0.7875,0.787,0.7854,0.7848,0.7852,0.781,0.782,0.7815,0.781,0.7774,0.777,0.7768,0.7775,0.7746,0.7746,0.7746,0.7745,0.7808,0.781,0,0,0,0,0,0,0.7925,0.7916,0.7891,0.7889,0.7887,0.7855,0.7848,0.7846,0.781,0.7802,0.7812,0.7807,0.7771,0.7768,0.7766,0.7802,0.7746,0.7745,0.7745,0.7806,0.7808,0.781,0,0,0,0,0,0,0.7926,0.7923,0.7893,0.7901,0.7896,0.7856,0.7853,0.7846,0.7841,0.7803,0.7796,0.7815,0.777,0.7766,0.7777,0.78,0.7745,0.7745,0.7804,0.7807,0.7809,0.7875,0,0,0,0,0,0,0.7927,0.7924,0.7935,0.7902,0.7896,0.7904,0.7855,0.7846,0.784,0.7834,0.7804,0.7798,0.7768,0.7777,0.7776,0.7799,0.7745,0.7802,0.7805,0.7808,0.7871,0.788,0.7888,0,0,0,0,0,0.7928,0.7956,0.7936,0.7934,0.7909,0.7906,0.7902,0.7867,0.7843,0.7854,0.783,0.7798,0.7798,0.7779,0.7777,0.78,0.78,0.7804,0.7808,0.7867,0.7878,0.7888,0,0,0,0,0,0,0.7994,0.7951,0.7928,0.7946,0.793,0.7895,0.7908,0.788,0.7871,0.7866,0.7823,0.7817,0.7833,0.7817,0.7797,0.783,0.7794,0.7798,0.7839,0.785,0.7858,0.7861,0.7745,0,0,0,0,0,0.801,0.801,0.7973,0.7992,0.7985,0.7948,0.7945,0.792,0.7902,0.7895,0.7871,0.7855,0.7851,0.785,0.7844,0.7868,0.7861,0.7883,0.7892,0.7899,0.7903,0.7915,0.7925,0.7823,0.7823,0.7823,0,0,0.8044,0.8021,0.8024,0.8005,0.7989,0.7991,0.7943,0.7947,0.7947,0.7895,0.7903,0.7886,0.7865,0.7883,0.789,0.7871,0.7929,0.7904,0.791,0.791,0.792,0.793,0.7938,0.7826,0.7826,0.7825,0,0,0.8107,0.809,0.8104,0.8089,0.8066,0.8042,0.8045,0.8014,0.8,0.8008,0.7969,0.797,0.7964,0.7951,0.7943,0.8002,0.7973,0.8002,0.8046,0.8058,0.8066,0.8073,0.8095,0.8103,0.8006,0.8006,0.8006,0,0.8153,0.8153,0.8115,0.8121,0.8114,0.8067,0.8081,0.8069,0.8046,0.8042,0.8021,0.8013,0.7996,0.801,0.8025,0.802,0.8023,0.8005,0.8068,0.8075,0.808,0.81,0.8109,0.801,0.8009,0.8009,0.8008,0,0.821,0.8211,0.8226,0.8204,0.8199,0.8209,0.8173,0.8173,0.8148,0.8126,0.8134,0.8112,0.8101,0.8103,0.8079,0.8114,0.8103,0.8076,0.8039,0.8094,0.8113,0.812,0.8015,0.8013,0.8012,0.8011,0,0,0.8313,0.827,0.8276,0.8266,0.8238,0.8238,0.8247,0.8236,0.8236,0.8222,0.8228,0.8225,0.82,0.8191,0.8165,0.8177,0.8225,0.8148,0.8147,0.8163,0.8264,0.8284,0.8294,0.8206,0.8207,0.8208,0.8265,0,0.837,0.8382,0.8348,0.8369,0.8369,0.8325,0.8332,0.8316,0.8296,0.8294,0.8272,0.827,0.8237,0.8231,0.824,0.8218,0.8245,0.8213,0.8212,0.8212,0.8219,0.8303,0.8325,0.838,0.8272,0.8273,0.8274,0,0.8439,0.8428,0.8449,0.8419,0.8419,0.8426,0.8413,0.8412,0.8393,0.8378,0.8369,0.8339,0.8346,0.8311,0.832,0.8299,0.8297,0.8286,0.8287,0.8286,0.8247,0.8304,0.8397,0.8406,0.8285,0.8284,0.8283,0,0.8512,0.8503,0.8514,0.8506,0.8473,0.8479,0.8465,0.8445,0.8441,0.843,0.8427,0.8418,0.8413,0.8406,0.8375,0.8352,0.8388,0.835,0.8376,0.8377,0.8386,0.8386,0.848,0.8385,0.8384,0.8384,0.8384,0,0.858,0.8594,0.8546,0.8553,0.8568,0.853,0.8546,0.8528,0.851,0.8513,0.8474,0.8478,0.8436,0.8436,0.8411,0.8423,0.8421,0.8409,0.8403,0.8413,0.8414,0.8411,0.8406,0.8386,0.8386,0.8385,0.8385,0,0.8664,0.8632,0.8642,0.8609,0.8601,0.8614,0.8586,0.8592,0.8569,0.8574,0.8573,0.8538,0.8535,0.8503,0.8494,0.8477,0.8499,0.8485,0.8505,0.8501,0.8529,0.8527,0.8624,0.8635,0.8533,0.8534,0.8535,0,0.8709,0.8719,0.8688,0.8687,0.8675,0.8674,0.867,0.8633,0.863,0.8609,0.8618,0.8612,0.8605,0.8604,0.8578,0.857,0.8556,0.8591,0.8555,0.8565,0.8557,0.8557,0.8558,0.8598,0.86,0.8601,0.8602,0,0.8793,0.8777,0.8772,0.8762,0.8758,0.8748,0.8736,0.8737,0.8697,0.8695,0.8692,0.8687,0.8678,0.8673,0.8661,0.8648,0.8618,0.8613,0.8619,0.8629,0.8641,0.8636,0.8526,0.8611,0.861,0.8609,0.8609,0.8608,0.8859,0.8866,0.8846,0.8841,0.8828,0.8818,0.8822,0.88,0.8797,0.8786,0.8764,0.8765,0.8746,0.8727,0.8716,0.8716,0.8699,0.8707,0.8709,0.8712,0.8718,0.8641,0.8714,0.8714,0.8714,0.8713,0.8713,0,0.8941,0.8926,0.8923,0.8907,0.8904,0.8876,0.8862,0.8861,0.8862,0.8847,0.8841,0.8838,0.8833,0.8807,0.88,0.8805,0.8792,0.8805,0.8804,0.8801,0.8734,0.873,0.8816,0.8816,0.8816,0.8816,0.8816,0.8816,0.8984,0.8995,0.8976,0.8981,0.8965,0.8965,0.8959,0.895,0.8938,0.8936,0.8932,0.8915,0.8895,0.8886,0.8881,0.8874,0.8873,0.889,0.8879,0.8816,0.8806,0.8797,0.8793,0.8891,0.8891,0.8946,0.8947,0.8947]}]]